Detroit Lakes, MN

5:47 AM CDT on May 28, 2018 (GMT -0500)
Detroit Lakes

Weather History for KDTL - February, 2014

Change the Weather History Date:

Thursday, February 6, 2014

  Actual Average Record
Temperature  
Mean Temperature -2 °F -  
Max Temperature 6 °F 21 °F 45 °F (1987)
Min Temperature -11 °F -4 °F -43 °F (1936)
Degree Days  
Heating Degree Days 68    
Moisture  
Dew Point -7 °F    
Average Humidity 80    
Maximum Humidity 92    
Minimum Humidity 72    
Precipitation  
Precipitation 0.00 in - - ()
Sea Level Pressure  
Sea Level Pressure 30.22 in    
Wind  
Wind Speed 10 mph (West)    
Max Wind Speed 14 mph    
Max Gust Speed 21 mph    
Visibility 9 miles    
Events Snow    
Averages and records for this station are not official NWS values.
T = Trace of Precipitation, MM = Missing Value Source: NWS Daily Summary

Daily Weather History Graph

Daily Weather History Graph

Search for Another Location

Airport or City:

Astronomy

Feb. 06, 2014 Rise Set
Actual Time 7:41 AM CST 5:34 PM CST
Civil Twilight 7:09 AM CST 6:06 PM CST
Nautical Twilight 6:33 AM CST 6:42 PM CST
Astronomical Twilight 5:57 AM CST 7:18 PM CST
Moon 11:05 AM CST (2/6) 12:58 AM CST (2/6)
Length of Visible Light 10h 57m
Length of Day
9h 53m
Waxing Crescent, 49% of the Moon is Illuminated
Feb 6
Waxing Crescent
Feb 6
First Quarter
Feb 14
Full
Feb 22
Last Quarter
Mar 1
New

Hourly Weather History & Observations

Time (CST) Temp. Windchill Dew Point Humidity Pressure Visibility Wind Dir Wind Speed Gust Speed Precip Events Conditions
12:14 AM -5.8 °F -24.4 °F -9.4 °F 84% 30.41 in 10.0 mi NW 11.5 mph - N/A   Clear
12:35 AM -5.8 °F -24.4 °F -9.4 °F 84% 30.40 in 10.0 mi WNW 11.5 mph - N/A   Clear
12:54 AM -5.8 °F -24.4 °F -11.2 °F 77% 30.40 in 10.0 mi WNW 11.5 mph - N/A   Clear
1:14 AM -7.6 °F -25.7 °F -11.2 °F 84% 30.39 in 10.0 mi WNW 10.4 mph - N/A   Clear
1:35 AM -7.6 °F -23.4 °F -11.2 °F 84% 30.39 in 10.0 mi WNW 8.1 mph - N/A Snow Light Snow
1:54 AM -7.6 °F -25.7 °F -13.0 °F 77% 30.38 in 10.0 mi WNW 10.4 mph - N/A   Clear
2:15 AM -7.6 °F -24.6 °F -13.0 °F 77% 30.37 in 10.0 mi WNW 9.2 mph - N/A Snow Light Snow
2:35 AM -9.4 °F -25.6 °F -13.0 °F 84% 30.37 in 10.0 mi WNW 8.1 mph - N/A   Clear
2:54 AM -9.4 °F -24.3 °F -14.8 °F 77% 30.36 in 10.0 mi West 6.9 mph - N/A   Clear
3:15 AM -9.4 °F -25.6 °F -14.8 °F 77% 30.36 in 10.0 mi West 8.1 mph - N/A   Clear
3:35 AM -9.4 °F -25.6 °F -14.8 °F 77% 30.35 in 10.0 mi West 8.1 mph - N/A   Clear
3:54 AM -9.4 °F -24.3 °F -14.8 °F 77% 30.35 in 10.0 mi West 6.9 mph - N/A   Mostly Cloudy
4:15 AM -9.4 °F -26.8 °F -13.0 °F 84% 30.34 in 10.0 mi West 9.2 mph - N/A   Overcast
4:35 AM -7.6 °F -22.1 °F -13.0 °F 77% 30.34 in 10.0 mi West 6.9 mph - N/A   Mostly Cloudy
4:54 AM -7.6 °F -22.1 °F -13.0 °F 77% 30.33 in 10.0 mi West 6.9 mph - N/A   Scattered Clouds
5:15 AM -9.4 °F -25.6 °F -13.0 °F 84% 30.33 in 10.0 mi West 8.1 mph - N/A   Scattered Clouds
5:34 AM -9.4 °F -25.6 °F -13.0 °F 84% 30.32 in 10.0 mi West 8.1 mph - N/A   Scattered Clouds
5:55 AM -9.4 °F -24.3 °F -14.8 °F 77% 30.31 in 10.0 mi West 6.9 mph - N/A   Scattered Clouds
6:14 AM -9.4 °F -22.7 °F -14.8 °F 77% 30.30 in 10.0 mi West 5.8 mph - N/A   Clear
6:35 AM -9.4 °F -25.6 °F -14.8 °F 77% 30.29 in 10.0 mi West 8.1 mph - N/A   Clear
6:55 AM -9.4 °F -25.6 °F -14.8 °F 77% 30.29 in 10.0 mi West 8.1 mph - N/A   Clear
7:14 AM -9.4 °F -25.6 °F -14.8 °F 77% 30.28 in 10.0 mi West 8.1 mph - N/A   Clear
7:35 AM -9.4 °F -24.3 °F -14.8 °F 77% 30.27 in 10.0 mi WSW 6.9 mph - N/A   Clear
7:55 AM -11.2 °F -29.0 °F -14.8 °F 84% 30.27 in 10.0 mi West 9.2 mph - N/A   Clear
8:14 AM -9.4 °F -26.8 °F -14.8 °F 77% 30.27 in 10.0 mi West 9.2 mph - N/A   Clear
8:35 AM -7.6 °F -24.6 °F -13.0 °F 77% 30.27 in 10.0 mi West 9.2 mph - N/A   Clear
8:55 AM -7.6 °F -24.6 °F -11.2 °F 84% 30.26 in 10.0 mi West 9.2 mph - N/A   Clear
9:14 AM -5.8 °F -23.4 °F -11.2 °F 77% 30.26 in 10.0 mi West 10.4 mph - N/A   Clear
9:35 AM -5.8 °F -24.4 °F -9.4 °F 84% 30.26 in 10.0 mi West 11.5 mph - N/A   Scattered Clouds
9:55 AM -4.0 °F -21.2 °F -9.4 °F 78% 30.25 in 7.0 mi West 10.4 mph - N/A   Mostly Cloudy
10:15 AM -4.0 °F -21.2 °F -9.4 °F 78% 30.25 in 10.0 mi West 10.4 mph - N/A   Mostly Cloudy
10:35 AM -4.0 °F -22.1 °F -7.6 °F 85% 30.25 in 10.0 mi West 11.5 mph 16.1 mph N/A   Mostly Cloudy
10:55 AM -2.2 °F -18.0 °F -7.6 °F 78% 30.25 in 5.0 mi West 9.2 mph - N/A   Haze
11:15 AM -0.4 °F -16.7 °F -7.6 °F 72% 30.24 in 10.0 mi West 10.4 mph - N/A   Mostly Cloudy
11:35 AM -0.4 °F -19.2 °F -5.8 °F 78% 30.23 in 10.0 mi West 13.8 mph - N/A   Mostly Cloudy
11:55 AM 1.4 °F -16.9 °F -5.8 °F 72% 30.23 in 10.0 mi West 13.8 mph - N/A   Mostly Cloudy
12:14 PM 1.4 °F -14.5 °F -5.8 °F 72% 30.22 in 7.0 mi West 10.4 mph - N/A   Scattered Clouds
12:35 PM 1.4 °F -13.5 °F -4.0 °F 78% 30.21 in 10.0 mi West 9.2 mph - N/A   Scattered Clouds
12:55 PM 1.4 °F -14.5 °F -4.0 °F 78% 30.21 in 10.0 mi West 10.4 mph - N/A   Mostly Cloudy
1:14 PM 3.2 °F -13.9 °F -4.0 °F 72% 30.20 in 10.0 mi West 12.7 mph 16.1 mph N/A   Mostly Cloudy
1:35 PM 3.2 °F -12.2 °F -2.2 °F 78% 30.19 in 10.0 mi West 10.4 mph - N/A   Scattered Clouds
1:55 PM 5.0 °F -10.0 °F -2.2 °F 72% 30.17 in 10.0 mi West 10.4 mph - N/A   Clear
2:15 PM 5.0 °F -9.1 °F -0.4 °F 78% 30.17 in 10.0 mi West 9.2 mph 17.3 mph N/A   Scattered Clouds
2:35 PM 5.0 °F -10.8 °F -0.4 °F 78% 30.17 in 10.0 mi WSW 11.5 mph - N/A   Scattered Clouds
2:55 PM 5.0 °F -10.0 °F -0.4 °F 78% 30.17 in 10.0 mi West 10.4 mph - N/A   Mostly Cloudy
3:14 PM 5.0 °F -9.1 °F 1.4 °F 85% 30.17 in 10.0 mi West 9.2 mph - N/A   Scattered Clouds
3:35 PM 6.8 °F -10.0 °F 1.4 °F 79% 30.16 in 5.0 mi West 13.8 mph - N/A   Haze
3:55 PM 6.8 °F -6.9 °F 1.4 °F 79% 30.16 in 3.0 mi West 9.2 mph - N/A   Haze
4:15 PM 6.8 °F -6.9 °F 1.4 °F 79% 30.15 in 10.0 mi West 9.2 mph - N/A   Overcast
4:35 PM 5.0 °F -10.0 °F 1.4 °F 85% 30.14 in 10.0 mi West 10.4 mph - N/A   Mostly Cloudy
4:55 PM 6.8 °F -6.9 °F 1.4 °F 79% 30.14 in 4.0 mi West 9.2 mph - N/A Snow Light Snow
5:15 PM 5.0 °F -9.1 °F 1.4 °F 85% 30.13 in 4.0 mi WSW 9.2 mph - N/A Snow Light Snow
5:35 PM 5.0 °F -9.1 °F 1.4 °F 85% 30.13 in 4.0 mi WSW 9.2 mph - N/A Snow Light Snow
5:54 PM 5.0 °F -8.1 °F 1.4 °F 85% 30.12 in 5.0 mi West 8.1 mph - N/A Snow Light Snow
6:15 PM 5.0 °F -8.1 °F 1.4 °F 85% 30.12 in 10.0 mi West 8.1 mph - N/A   Mostly Cloudy
6:35 PM 5.0 °F -8.1 °F 1.4 °F 85% 30.12 in 7.0 mi West 8.1 mph - N/A Snow Light Snow
6:54 PM 5.0 °F -9.1 °F 1.4 °F 85% 30.12 in 10.0 mi West 9.2 mph - N/A   Mostly Cloudy
7:15 PM 5.0 °F -8.1 °F 1.4 °F 85% 30.12 in 10.0 mi West 8.1 mph - N/A Snow Light Snow
7:35 PM 3.2 °F -10.3 °F 1.4 °F 92% 30.11 in 5.0 mi West 8.1 mph - N/A Snow Light Snow
7:54 PM 3.2 °F -12.2 °F -0.4 °F 85% 30.10 in 10.0 mi WSW 10.4 mph 16.1 mph N/A Snow Light Snow
8:15 PM 3.2 °F -13.1 °F -0.4 °F 85% 30.09 in 10.0 mi West 11.5 mph - N/A   Clear
8:35 PM 3.2 °F -12.2 °F -2.2 °F 78% 30.09 in 10.0 mi West 10.4 mph 17.3 mph N/A   Clear
8:54 PM 1.4 °F -14.5 °F -2.2 °F 85% 30.09 in 10.0 mi West 10.4 mph - N/A   Clear
9:15 PM 1.4 °F -15.3 °F -4.0 °F 78% 30.09 in 10.0 mi West 11.5 mph - N/A   Clear
9:35 PM 1.4 °F -14.5 °F -4.0 °F 78% 30.09 in 10.0 mi West 10.4 mph - N/A   Clear
9:54 PM 1.4 °F -15.3 °F -4.0 °F 78% 30.08 in 10.0 mi West 11.5 mph 16.1 mph N/A   Clear
10:15 PM 1.4 °F -13.5 °F -4.0 °F 78% 30.07 in 10.0 mi WSW 9.2 mph - N/A   Clear
10:35 PM 1.4 °F -14.5 °F -4.0 °F 78% 30.06 in 10.0 mi WSW 10.4 mph - N/A   Clear
10:54 PM 1.4 °F -14.5 °F -4.0 °F 78% 30.06 in 10.0 mi WSW 10.4 mph - N/A   Clear
11:15 PM 1.4 °F -14.5 °F -4.0 °F 78% 30.05 in 10.0 mi West 10.4 mph - N/A   Clear
11:35 PM 1.4 °F -14.5 °F -5.8 °F 72% 30.05 in 10.0 mi West 10.4 mph - N/A   Clear
11:55 PM 1.4 °F -16.1 °F -5.8 °F 72% 30.05 in 10.0 mi West 12.7 mph 20.7 mph N/A   Clear